Regional Weather Roundup
Issued by NWS

Home | Current Version | Previous Version | Text Only | Print | Product List | Glossary On
Versions: 1 2 3 4 5 6 7 8 9 10 11 12 13 14 15 16 17 18 19 20 21 22 23 24 25 26 27 28 29 30 31 32 33 34 35 36 37 38 39 40 41 42 43 44 45 46 47 48 49 50
000
ASUS45 KBOU 160010
RWRCO

WEATHER ROUNDUP FOR COLORADO
NATIONAL WEATHER SERVICE DENVER/BOULDER CO
500 PM MST MON JAN 15 2018

NOTE: "FAIR" INDICATES FEW OR NO CLOUDS BELOW 12000 FEET WITH NO
SIGNIFICANT WEATHER AND/OR OBSTRUCTIONS TO VISIBILITY.

COZ001>005-013-030-031-160100-
...NORTHWEST COLORADO...

CITY           SKY/WX    TMP DP  RH WIND       PRES   REMARKS
CRAIG          FAIR      30   8  39 N13       30.37R WCI  20
HAYDEN         FAIR      29  18  63 W3        30.36R
MEEKER         FAIR      33  18  53 N10       30.34R WCI  25
RABBIT EARS PA LGT SNOW N/A N/A N/A NW6       30.26S
STEAMBOAT SPGS FAIR      27  19  71 SW3       30.34R
WALDEN         FAIR      16  -8  35 N14       30.34R WCI   1
$$

COZ006>008-011-160100-
...WEST CENTRAL VALLEYS...

CITY           SKY/WX    TMP DP  RH WIND       PRES   REMARKS
GRAND JUNCTION FAIR      44  23  43 N8        30.27S
MONTROSE       FAIR      41  21  44 NW8       30.27R
EAGLE          CLOUDY    35  13  40 E8        30.31R WCI  29
RIFLE          FAIR      40  20  44 NW14G24   30.30R
DELTA          FAIR      45  22  39 CALM      30.24S
NUCLA          FAIR      45  23  42 N3        30.26R
$$

COZ017>023-064>068-160100-
...SOUTHWEST COLORADO...

CITY           SKY/WX    TMP DP  RH WIND       PRES   REMARKS
DURANGO        FAIR      42  24  49 SW3       30.16R
CORTEZ         FAIR      42  26  53 W10       30.18R
PAGOSA SPRINGS FAIR      37  19  47 CALM      30.18R
TELLURIDE      FAIR      35  16  46 W15       30.24S WCI  25
WOLF CREEK PAS FAIR      25  10  54 S3        30.30R
$$

COZ009-010-012-014-032>034-037-058>063-160100-
...CENTRAL COLORADO...

CITY           SKY/WX    TMP DP  RH WIND       PRES   REMARKS
ASPEN          FAIR      34  18  52 NW8       30.25R WCI  27
BUENA VISTA    FAIR      22  15  76 SE14      30.22R WCI   9
COPPER MTN     NOT AVBL
BERTHOUD PASS  CLOUDY     5  -6  61 NW25G33   30.17R WCI -18
COTTONWOOD PAS NOT AVBL
GUNNISON       FAIR      37  17  44 SW9       30.20R
KREMMLING      NOT AVBL
LEADVILLE      FAIR      21  10  62 N10G22    30.23R WCI  10
MONARCH PASS   FAIR      21  14  73 W24G30    30.29R WCI   4
SALIDA         FAIR      21  17  83 SE16G26   30.30R WCI   7
SUNLIGHT       CLOUDY    19  18  93 CALM      30.32R
WILKERSON PASS FAIR      12   9  85 N12G23    30.22R WCI  -2
$$

COZ069>075-160100-
...SAN LUIS VALLEY/SANGRE DE CRISTO MOUNTAINS...

CITY           SKY/WX    TMP DP  RH WIND       PRES   REMARKS
ALAMOSA        FAIR      32  10  40 SE10      30.13R WCI  24
DEL NORTE      FAIR      42   7  23 NE10      30.15R
LA VETA PASS   LGT SNOW   5   1  85 NE10G21     N/A  VSB 3/4 WCI -10
SAGUACHE       FAIR      41  14  33 NW17G23   30.15R
$$

COZ035-036-038>040-160100-
...NORTHERN COLORADO FRONT RANGE...

CITY           SKY/WX    TMP DP  RH WIND       PRES   REMARKS
DENVER INTL AP MOCLDY    15   2  56 NE6       30.47R WCI   6
DMNS CITY PARK NOT AVBL
AURORA         MOCLDY    12   3  68 NE5       30.46R WCI   4
FRONT RANGE AP MOCLDY    19   5  53 NE7       30.47R WCI  10
ERIE MUNI ARPT CLOUDY    20  11  68 S5        30.54R WCI  13
BOULDER MUN AP FLURRIES  19  12  73 SE6       30.47R WCI  11
CENTENNIAL     MOCLDY    16   8  71 CALM      30.44R
BROOMFIELD     MOCLDY    18  12  79 SE5       30.46R WCI  11
FORT COLLINS   FAIR      14   8  77 S7        30.49R WCI   4
LONGMONT       CLOUDY    22  11  63 S5        30.51R WCI  16
$$

COZ041-046-047-076>085-087-088-160100-
...PIKES PEAK/PALMER DIVIDE AND SOUTHERN FOOTHILLS...

CITY           SKY/WX    TMP DP  RH WIND       PRES   REMARKS
COLO. SPRINGS  FLURRIES  19   8  62 N9        30.41R WCI   8
A. F. ACADEMY  CLOUDY    15   6  70 NE5       30.38R WCI   7
SCHRIEVER AFB  FLURRIES  15   7  71 NE10      30.41R WCI   2
CHEYENNE MTN   LGT SNOW  14  11  85 CALM      30.31S
ELLICOTT         N/A    N/A N/A N/A N13         N/A
FALCON         CLOUDY    12   5  73 N7        30.38R WCI   1
FORT CARSON    FLURRIES  19  13  78 SW9       30.41S WCI   7
LIMON          FAIR      11  -2  56 N12       30.45R WCI  -3
MONUMENT HILL  MOCLDY     3   0  85 NW7       30.38R WCI  -9
CANON CITY     LGT SNOW  21  19  93 E7        30.45R WCI  13
WALSENBURG     CLOUDY    18  14  86 E7        30.43R WCI   8
TRINIDAD       LGT SNOW  15  11  83 NE8       30.44R FOG     WCI   4
$$

COZ042>045-048>051-090-091-160100-
...NORTHEAST COLORADO...

CITY           SKY/WX    TMP DP  RH WIND       PRES   REMARKS
GREELEY ARPT   FAIR      15   3  59 NE10      30.51R WCI   2
AKRON          FAIR       9   0  67 N12       30.49R WCI  -6
BURLINGTON     FAIR      11   0  61 N15       30.51R WCI  -5
WRAY           FAIR      10   0  61 MISG      30.59R
YUMA           FAIR       9  -2  61 N13       30.53R WCI  -7
STERLING       FAIR      14   3  62 NE8       30.54R WCI   3
HOLYOKE        FAIR      10   0  61 N15G22    30.58R WCI  -6
FORT MORGAN    FAIR      13  -8  38 N20       30.51R WCI  -4
$$

COZ086-089-092>099-160100-
...SOUTHEAST COLORADO...

CITY           SKY/WX    TMP DP  RH WIND       PRES   REMARKS
PUEBLO         LGT SNOW  21  16  81 S6        30.50R WCI  13
LA JUNTA       CLOUDY    25   5  42 N7        30.51R WCI  17
LAMAR          CLOUDY    23  -2  33 NE10      30.51R WCI  12
SPRINGFIELD      N/A     20   4  50 N18G24    30.47R WCI   5
$$



USA.gov is the U.S. government's official web portal to all federal, state and local government web resources and services.